Flag for U.S.A. Weather past 2 weeks in Paradise, Nevada, U.S.A.

Now
86 °F

Scattered clouds.


Feels Like: 83 °F
Forecast: 66 / 89 °F
Wind: 3 mph from North

Location: McCarran International Airport

Current Time: May 25, 2015 at 5:06:34 PM

Latest Report: May 25, 2015 at 3:56 PM


Visibility: 10 mi

Pressure: 29.75 "Hg

Humidity: 25%

Dew point: 46 °F

Location of ParadiseLocation

Historic Weather in Paradise — Graph

°F

Paradise temperature yesterday

Maximum temperature yesterday: 81 °F (at 4:56 PM)
Minimum temperature yesterday: 65 °F (at 10:56 PM)
Average temperature yesterday: 73 °F

Past Weeks' High & Low Weather Summary

 TemperatureHumidityPressure
High88 °F (May 11, 3:00 PM)75% (May 25, 4:56 AM)29.93 "Hg (May 25, 4:56 AM)
Low53 °F (May 15, 5:56 AM)5% (May 13, 10:56 PM)29.57 "Hg (May 14, 4:56 PM)
Average71 °F29%29.75 "Hg
* Reported May 10 3:56 PM — May 25 3:56 PM, Paradise, Weather by CustomWeather, © 2015

Note: Actual official high and low records may vary slightly from our data, if they occured in-between our weather recording intervals... More about our weather records

Advertising

Paradise weather history for previous 24 hours

 ConditionsComfort  
Time TempWeatherWind HumidityBarometerVisibility
3:56 PM
Mon, May 25
86 °FScattered clouds.3 mph25%29.75 "Hg10 mi
2:56 PM85 °FScattered clouds.7 mph26%29.78 "Hg10 mi
1:56 PM82 °FScattered clouds.3 mph31%29.80 "Hg10 mi
12:56 PM80 °FScattered clouds.3 mph32%29.83 "Hg10 mi
11:56 AM78 °FPassing clouds.No wind37%29.85 "Hg10 mi
10:56 AM74 °FPassing clouds.7 mph43%29.86 "Hg10 mi
9:56 AM72 °FPassing clouds.No wind48%29.86 "Hg10 mi
8:56 AM68 °FPassing clouds.6 mph59%29.87 "Hg10 mi
7:56 AM66 °FPassing clouds.3 mph63%29.86 "Hg10 mi
6:56 AM64 °FPassing clouds.5 mph70%29.84 "Hg10 mi
5:56 AM63 °FPassing clouds.3 mph73%29.83 "Hg10 mi
4:56 AM63 °FPassing clouds.7 mph75%29.81 "Hg10 mi
3:56 AM63 °FPartly cloudy.8 mph73%29.81 "Hg10 mi
2:56 AM64 °FPartly cloudy.7 mph70%29.82 "Hg10 mi
1:56 AM64 °FPartly cloudy.5 mph70%29.83 "Hg10 mi
12:56 AM65 °FPartly cloudy.5 mph68%29.82 "Hg10 mi
11:56 PM
Sun, May 24
66 °FLight rain. Mostly cloudy.7 mph65%29.83 "Hg10 mi
10:56 PM65 °FThunderstorms. Mostly cloudy.12 mph73%29.83 "Hg10 mi
9:56 PM73 °FThunderstorms. Overcast.8 mph41%29.78 "Hg10 mi
8:56 PM74 °FPassing clouds.9 mph43%29.74 "Hg10 mi
7:56 PM80 °FPartly sunny.12 mph26%29.70 "Hg10 mi
6:56 PM80 °FPartly sunny.13 mph27%29.69 "Hg10 mi
5:56 PM81 °FPartly sunny.7 mph26%29.69 "Hg10 mi
Weather by CustomWeather, © 2015

See weather overviewHow to use our weather pages